Cloud_Cover
100 100 100 100 100 100 100 100 100 100 100 100 100 98 83 76 32 26 5 5 40 90 94 100 100 100 100
100 100 100 100 100 100 100 100 100 100 100 100 94 47 20 36 5 7 5 5 5 90 100 100 100 100 98
100 100 100 100 100 100 100 100 100 100 100 100 90 84 70 99 5 5 5 5 15 100 100 100 100 100 100
100 100 100 100 100 100 100 100 100 100 100 100 100 100 94 64 19 5 25 92 100 100 100 100 100 100 100
100 100 100 100 100 100 100 100 100 90 98 80 75 74 10 3 5 33 95 99 98 100 100 100 100 100 100
100 100 100 100 100 100 100 100 98 96 74 52 81 15 5 5 5 78 95 98 100 100 100 100 100 100 100
100 100 100 100 100 100 91 52 65 66 100 100 97 16 5 2 5 5 12 100 100 100 100 100 100 100 100
100 100 100 100 100 100 100 100 94 100 96 90 15 19 4 0 0 5 21 84 100 100 100 100 100 100 100
100 100 100 100 100 100 100 98 100 18 83 13 5 5 5 2 4 4 5 5 59 100 100 100 100 100 71
100 100 99 62 94 98 57 81 100 29 5 83 15 33 12 5 2 0 5 2 5 39 75 99 100 100 97
100 96 99 96 80 86 51 99 100 99 5 100 76 32 100 73 6 5 5 5 5 5 5 5 95 94 100
100 100 97 100 100 98 66 5 8 16 5 21 89 72 100 100 99 10 5 5 5 5 5 48 88 71 79
97 100 100 100 100 27 5 5 5 5 5 5 25 12 92 100 100 93 97 5 5 5 54 97 99 62 92
69 100 99 75 53 75 53 5 64 14 5 5 5 20 95 88 96 81 5 92 10 70 98 100 90 6 5
100 81 59 96 94 99 70 74 95 97 49 5 5 5 5 64 80 5 5 17 92 100 100 100 89 5 5
96 97 94 98 100 86 67 97 99 79 93 32 36 54 10 5 7 6 62 97 79 100 100 100 98 5 5
99 100 100 100 100 92 84 72 55 75 51 69 77 100 100 94 23 5 85 67 97 100 100 100 100 11 46